• In Romania
  • List of Countries
  • For 7 days
  • Water Temperature
  • Satellite Maps
  • Weather Map
  • Weather Widgets
  • user-avatar
    Login

    Hourly Weather Prutz

    Today, 18 December, Monday

    Time Temperature Precipitation Wind Pressure Humidity
    00:00 -16°C° 0 mm 2 mps 632 mmHg 91%
    01:00 -14°C° 0 mm 2 mps 632 mmHg 92%
    02:00 -14°C° 0 mm 2 mps 632 mmHg 90%
    03:00 -15°C° 0 mm 2 mps 631 mmHg 89%
    04:00 -15°C° 0 mm 2 mps 631 mmHg 87%
    05:00 -15°C° 0 mm 2 mps 631 mmHg 83%
    06:00 -14°C° 0 mm 2 mps 631 mmHg 78%
    07:00 -12°C° 0 mm 2 mps 631 mmHg 77%
    08:00 -9°C° 0.1 mm 1 mps 631 mmHg 78%
    09:00 -8°C° 0.1 mm 1 mps 632 mmHg 78%
    10:00 -7°C° 0.1 mm 1 mps 632 mmHg 79%
    11:00 -6°C° 0.2 mm 1 mps 632 mmHg 80%
    12:00 -4°C° 0.2 mm 1 mps 632 mmHg 81%
    13:00 -4°C° 0 mm 1 mps 632 mmHg 81%
    14:00 -4°C° 0.1 mm 1 mps 632 mmHg 84%
    15:00 -4°C° 0.1 mm 1 mps 632 mmHg 87%
    16:00 -6°C° 0.1 mm 1 mps 633 mmHg 91%
    17:00 -7°C° 0.1 mm 1 mps 633 mmHg 92%
    18:00 -7°C° 0.1 mm 1 mps 633 mmHg 92%
    19:00 -8°C° 0.1 mm 1 mps 633 mmHg 93%
    20:00 -8°C° 0 mm 1 mps 633 mmHg 93%
    21:00 -8°C° 0 mm 1 mps 634 mmHg 93%
    22:00 -9°C° 0 mm 1 mps 634 mmHg 93%
    23:00 -9°C° 0 mm 1 mps 634 mmHg 94%

    Tomorrow, 19 December, Tuesday

    Time Temperature Precipitation Wind Pressure Humidity
    00:00 -9°C° 0 mm 1 mps 635 mmHg 94%
    01:00 -9°C° 0 mm 1 mps 635 mmHg 94%
    02:00 -9°C° 0 mm 1 mps 635 mmHg 94%
    03:00 -9°C° 0 mm 1 mps 635 mmHg 94%
    04:00 -9°C° 0 mm 1 mps 635 mmHg 94%
    05:00 -10°C° 0 mm 1 mps 635 mmHg 93%
    06:00 -10°C° 0 mm 1 mps 636 mmHg 93%
    07:00 -10°C° 0 mm 1 mps 636 mmHg 93%
    08:00 -9°C° 0 mm 1 mps 637 mmHg 92%
    09:00 -8°C° 0 mm 1 mps 637 mmHg 90%
    10:00 -7°C° 0 mm 1 mps 638 mmHg 89%
    11:00 -6°C° 0 mm 1 mps 638 mmHg 87%
    12:00 -4°C° 0 mm 1 mps 638 mmHg 85%
    13:00 -3°C° 0 mm 1 mps 639 mmHg 83%
    14:00 -3°C° 0 mm 1 mps 638 mmHg 86%
    15:00 -4°C° 0 mm 1 mps 638 mmHg 89%
    16:00 -6°C° 0 mm 1 mps 638 mmHg 92%
    17:00 -7°C° 0 mm 1 mps 638 mmHg 93%
    18:00 -8°C° 0 mm 1 mps 638 mmHg 93%
    19:00 -9°C° 0 mm 1 mps 638 mmHg 94%
    20:00 -9°C° 0 mm 1 mps 638 mmHg 94%
    21:00 -9°C° 0 mm 1 mps 638 mmHg 93%
    22:00 -9°C° 0 mm 1 mps 638 mmHg 93%
    23:00 -9°C° 0 mm 1 mps 638 mmHg 93%

    Day after tomorrow, 20 December, Wednesday

    Time Temperature Precipitation Wind Pressure Humidity
    00:00 -9°C° 0 mm 1 mps 638 mmHg 93%
    01:00 -9°C° 0 mm 1 mps 638 mmHg 93%
    02:00 -9°C° 0 mm 1 mps 637 mmHg 92%
    03:00 -9°C° 0 mm 1 mps 637 mmHg 92%
    04:00 -9°C° 0 mm 1 mps 637 mmHg 92%
    05:00 -8°C° 0.1 mm 1 mps 637 mmHg 92%
    06:00 -8°C° 0.1 mm 1 mps 637 mmHg 92%
    07:00 -8°C° 0.1 mm 1 mps 638 mmHg 92%
    08:00 -7°C° 0.1 mm 2 mps 638 mmHg 91%
    09:00 -6°C° 0.1 mm 2 mps 638 mmHg 90%
    10:00 -5°C° 0.1 mm 2 mps 639 mmHg 90%
    11:00 -4°C° 0.1 mm 2 mps 639 mmHg 90%
    12:00 -3°C° 0.1 mm 2 mps 639 mmHg 89%
    13:00 -2°C° 0.1 mm 2 mps 639 mmHg 89%
    14:00 -3°C° 0 mm 2 mps 638 mmHg 91%
    15:00 -4°C° 0 mm 2 mps 638 mmHg 92%
    16:00 -2°C° 0 mm 1 mps 638 mmHg 94%
    17:00 -5°C° 0 mm 2 mps 638 mmHg 94%
    18:00 -6°C° 0 mm 2 mps 638 mmHg 94%
    19:00 -7°C° 0 mm 2 mps 638 mmHg 94%
    20:00 -7°C° 0 mm 2 mps 638 mmHg 93%
    21:00 -7°C° 0 mm 2 mps 638 mmHg 92%
    22:00 -8°C° 0 mm 2 mps 638 mmHg 91%
    23:00 -8°C° 0 mm 2 mps 638 mmHg 90%

    21 December, Thursday

    Time Temperature Precipitation Wind Pressure Humidity
    00:00 -8°C° 0 mm 2 mps 638 mmHg 90%
    01:00 -7°C° 0 mm 2 mps 638 mmHg 89%
    02:00 -7°C° 0.2 mm 2 mps 638 mmHg 89%
    03:00 -6°C° 0.2 mm 2 mps 638 mmHg 89%
    04:00 -6°C° 0.2 mm 2 mps 639 mmHg 88%
    05:00 -5°C° 0.7 mm 2 mps 639 mmHg 90%
    06:00 -4°C° 0.7 mm 2 mps 639 mmHg 92%
    07:00 -3°C° 0.7 mm 2 mps 640 mmHg 94%
    08:00 -3°C° 1 mm 2 mps 640 mmHg 94%
    09:00 -2°C° 1 mm 2 mps 640 mmHg 94%
    10:00 -1°C° 1 mm 2 mps 640 mmHg 94%
    11:00 -1°C° 0.6 mm 2 mps 640 mmHg 95%
    12:00 +1°C° 0.6 mm 2 mps 640 mmHg 95%
    13:00 +1°C° 0.6 mm 2 mps 640 mmHg 96%
    14:00 +1°C° 0.3 mm 2 mps 640 mmHg 96%
    15:00 +1°C° 0.3 mm 2 mps 640 mmHg 96%
    16:00 +1°C° 0.3 mm 2 mps 640 mmHg 96%
    17:00 -1°C° 0.5 mm 2 mps 640 mmHg 95%
    18:00 -1°C° 0.5 mm 2 mps 640 mmHg 95%
    19:00 -1°C° 0.5 mm 2 mps 640 mmHg 95%
    20:00 -1°C° 1.1 mm 2 mps 640 mmHg 95%
    21:00 -1°C° 1.1 mm 2 mps 640 mmHg 95%
    22:00 +1°C° 1.1 mm 2 mps 640 mmHg 95%
    23:00 +1°C° 1.1 mm 2 mps 640 mmHg 95%

    22 December, Friday

    Time Temperature Precipitation Wind Pressure Humidity
    00:00 +1°C° 1.1 mm 2 mps 639 mmHg 96%
    01:00 +1°C° 1.1 mm 2 mps 639 mmHg 96%
    02:00 +1°C° 1.5 mm 2 mps 639 mmHg 96%
    03:00 +1°C° 1.5 mm 2 mps 639 mmHg 96%
    04:00 +1°C° 1.5 mm 2 mps 639 mmHg 96%
    05:00 +1°C° 1.7 mm 2 mps 639 mmHg 96%
    06:00 -1°C° 1.7 mm 2 mps 639 mmHg 96%
    07:00 -1°C° 1.7 mm 2 mps 639 mmHg 96%
    08:00 +1°C° 0.9 mm 2 mps 639 mmHg 96%
    09:00 +1°C° 0.9 mm 2 mps 639 mmHg 96%
    10:00 +1°C° 0.9 mm 2 mps 640 mmHg 96%
    11:00 +1°C° 0.3 mm 2 mps 640 mmHg 96%
    12:00 +1°C° 0.3 mm 2 mps 639 mmHg 95%
    13:00 +2°C° 0.3 mm 2 mps 639 mmHg 95%
    14:00 +1°C° 0.3 mm 2 mps 639 mmHg 95%
    15:00 +1°C° 0.3 mm 2 mps 639 mmHg 95%
    16:00 -1°C° 0.3 mm 2 mps 639 mmHg 95%
    17:00 -1°C° 0.4 mm 2 mps 639 mmHg 95%
    18:00 -2°C° 0.4 mm 2 mps 639 mmHg 96%
    19:00 -2°C° 0.4 mm 2 mps 639 mmHg 96%
    20:00 -2°C° 0.5 mm 2 mps 638 mmHg 96%
    21:00 -3°C° 0.5 mm 2 mps 638 mmHg 96%
    22:00 -3°C° 0.5 mm 2 mps 638 mmHg 96%
    23:00 -3°C° 0.7 mm 2 mps 638 mmHg 96%

    23 December, Saturday

    Time Temperature Precipitation Wind Pressure Humidity
    00:00 -3°C° 0.7 mm 2 mps 638 mmHg 96%
    01:00 -5°C° 0.7 mm 3 mps 637 mmHg 96%
    02:00 -5°C° 0.9 mm 3 mps 637 mmHg 96%
    03:00 -5°C° 0.9 mm 3 mps 637 mmHg 96%
    04:00 -5°C° 0.9 mm 3 mps 637 mmHg 96%
    05:00 -6°C° 0.8 mm 3 mps 637 mmHg 96%
    06:00 -6°C° 0.8 mm 3 mps 637 mmHg 95%
    07:00 -6°C° 0.8 mm 3 mps 636 mmHg 95%
    08:00 -6°C° 0.6 mm 3 mps 637 mmHg 95%
    09:00 -6°C° 0.6 mm 3 mps 637 mmHg 94%
    10:00 -6°C° 0.6 mm 3 mps 637 mmHg 94%
    11:00 -5°C° 0.4 mm 3 mps 637 mmHg 93%
    12:00 -5°C° 0.4 mm 3 mps 637 mmHg 91%
    13:00 -5°C° 0.4 mm 3 mps 637 mmHg 90%
    14:00 -5°C° 0.1 mm 3 mps 637 mmHg 91%
    15:00 -5°C° 0.1 mm 3 mps 637 mmHg 92%
    16:00 -6°C° 0.1 mm 3 mps 637 mmHg 93%
    17:00 -6°C° 0 mm 2 mps 637 mmHg 93%
    18:00 -7°C° 0 mm 2 mps 637 mmHg 93%
    19:00 -8°C° 0 mm 2 mps 637 mmHg 93%
    20:00 -8°C° 0 mm 2 mps 637 mmHg 91%
    21:00 -9°C° 0 mm 2 mps 637 mmHg 89%
    22:00 -9°C° 0 mm 2 mps 637 mmHg 87%
    23:00 -8°C° 0 mm 2 mps 637 mmHg 84%
    Show more